Location: Elliot Lake
(46.3862°N, 82.6509°W)
Time: 06:10:33
(UTC-05:00)

ISS - Visible Passes

Search period start: 23 November 2017 00:00
Search period end: 03 December 2017 00:00
Orbit: 402 x 407 km, 51.6° (Epoch: 23 November)

Date Brightness Start Highest point End Pass type
(mag) Time Alt. Az. Time Alt. Az. Time Alt. Az.
26 Nov -1.4 18:34:55 10° S 18:35:51 13° SSE 18:35:51 13° SSE visible
27 Nov -1.4 19:17:28 10° SW 19:18:37 20° SW 19:18:37 20° SW visible
28 Nov -2.8 18:25:30 10° SSW 18:28:25 31° SE 18:28:36 30° SE visible
29 Nov -1.9 17:33:55 10° S 17:36:15 18° SE 17:38:30 10° E visible
29 Nov -2.3 19:09:06 10° WSW 19:11:10 36° WSW 19:11:10 36° WSW visible
30 Nov -3.7 18:16:47 10° SW 18:20:02 64° SSE 18:21:00 40° E visible
30 Nov -0.2 19:53:34 10° W 19:53:39 11° W 19:53:39 11° W visible
01 Dec -2.9 17:24:40 10° SSW 17:27:44 37° SE 17:30:47 10° ENE visible
01 Dec -2.6 19:00:58 10° W 19:03:25 39° WNW 19:03:25 39° WNW visible
02 Dec -3.7 18:08:26 10° WSW 18:11:42 69° NNW 18:13:09 30° NE visible
02 Dec -0.4 19:45:33 10° WNW 19:45:47 12° WNW 19:45:47 12° WNW visible
